sat.trackr.live / text

‹ back to catalog

GLOBALSTAR M097

NORAD 39072 · 2013-005A

PAYLOAD ACTIVE UNKNOWN

§ Identity

Operator
Country
GLOB
Launch date
2013-02-06
Launch site
TYMSC
Launch vehicle
Mass (kg)
RCS (m²)
4.34

Purposes: comms

External: N2YO · Heavens-Above · Gunter

§ Orbital elements

Epoch: 2026-09-12T04:27:47.693088Z

Period
114.08 min
Inclination
52.0073°
Eccentricity
0.0000616
Mean motion
12.62271211 rev/d
Perigee alt
1,413.1 km
Apogee alt
1,414.1 km
Semi-major
7,791.7 km
B*
-2.2592e-6
RAAN
338.5021°
Arg perigee
118.9498°
Mean anomaly
241.1431°
Rev number
62,789

§ Raw data

GLOBALSTAR M0971 39072U 13005A   26255.18596867 -.00000104  00000+0 -22592-5 0  99912 39072  52.0073 338.5021 0000616 118.9498 241.1431 12.62271211627898

JSON: /api/v1/satellites/39072 · /tle

For live sub-satellite position, see the globe view (requires WebGL).

§ Visibility from observer

Set your observer location to see the next 7 days of passes ≥ 10°. The values pass through the URL so the page stays shareable.

No JS? Fill the form by hand. The geolocation button needs JavaScript.